Change the Weather History Date:

Friday, March 22, 2013

  Actual Average Record
Temperature  
Mean Temperature 35 °F 44 °F  
Max Temperature 43 °F 54 °F 85 °F (2012)
Min Temperature 27 °F 34 °F 13 °F (1965)
Degree Days  
Heating Degree Days 30 21  
Month to date heating degree days 562 538  
Since 1 July heating degree days 4253 4427  
Cooling Degree Days 0 0  
Month to date cooling degree days 0 0  
Year to date cooling degree days 0 0  
Moisture  
Dew Point 15 °F    
Average Humidity 48    
Maximum Humidity 63    
Minimum Humidity 33    
Precipitation  
Precipitation 0.00 in 0.11 in 0.74 in (1952)
Month to date precipitation 1.82 2.54  
Year to date precipitation 6.39 7.95  
Sea Level Pressure  
Sea Level Pressure 29.99 in    
Wind  
Wind Speed 6 mph (West)    
Max Wind Speed 13 mph    
Max Gust Speed 21 mph    
Visibility 10 miles    
Events      
T = Trace of Precipitation, MM = Missing Value Source: NWS Daily Summary

Daily Weather History Graph

Daily Weather History Graph

Search for Another Location

Airport or City:

Trip Planner

Search our weather history database for the weather conditions in past years. The results will help you decide how hot, cold, wet, or windy it might be!

Date:

Astronomy

Mar. 22, 2013 Rise Set
Actual Time 7:19 AM EDT 7:33 PM EDT
Civil Twilight 6:52 AM EDT 8:00 PM EDT
Nautical Twilight 6:21 AM EDT 8:32 PM EDT
Astronomical Twilight 5:49 AM EDT 9:04 PM EDT
Moon 3:00 PM EDT (3/22) 4:18 AM EDT (3/22)
Length of Visible Light 13h 08m
Length of Day
12h 14m
Waxing Gibbous, 77% of the Moon is Illuminated
Mar 22
Waxing Gibbous
Mar 27
Full
Apr 3
Last Quarter
Apr 10
New
Apr 18
First Quarter

Hourly Weather History & Observations

Time (EDT) Temp. Windchill Dew Point Humidity Pressure Visibility Wind Dir Wind Speed Gust Speed Precip Events Conditions
12:53 AM 28.9 °F 21.9 °F 14.0 °F 54% 29.96 in 10.0 mi WSW 6.9 mph - N/A   Overcast
1:53 AM 28.0 °F 20.8 °F 15.1 °F 58% 29.97 in 10.0 mi Variable 6.9 mph - N/A   Overcast
2:53 AM 28.0 °F 19.3 °F 16.0 °F 61% 29.97 in 10.0 mi SW 9.2 mph 17.3 mph N/A   Overcast
3:53 AM 28.0 °F 20.8 °F 16.0 °F 61% 29.96 in 10.0 mi SW 6.9 mph - N/A   Overcast
4:53 AM 27.0 °F 19.5 °F 16.0 °F 63% 29.96 in 10.0 mi WSW 6.9 mph - N/A   Mostly Cloudy
5:53 AM 27.0 °F 21.6 °F 16.0 °F 63% 29.97 in 10.0 mi Variable 4.6 mph - N/A   Overcast
6:53 AM 28.0 °F 21.7 °F 16.0 °F 61% 29.98 in 10.0 mi WSW 5.8 mph - N/A   Overcast
7:53 AM 27.0 °F 18.7 °F 14.0 °F 58% 29.99 in 10.0 mi SW 8.1 mph - N/A   Partly Cloudy
8:53 AM 28.0 °F 20.8 °F 14.0 °F 56% 30.00 in 10.0 mi Variable 6.9 mph - N/A   Mostly Cloudy
9:37 AM 28.4 °F 21.2 °F 14.0 °F 55% 29.97 in 10.0 mi Variable 6.9 mph - N/A   Overcast
9:53 AM 28.9 °F 21.9 °F 14.0 °F 54% 30.01 in 10.0 mi Variable 6.9 mph - N/A   Overcast
10:28 AM 28.4 °F 23.3 °F 14.0 °F 55% 29.98 in 10.0 mi West 4.6 mph - N/A   Overcast
10:53 AM 30.0 °F 23.2 °F 14.0 °F 51% 30.01 in 10.0 mi West 6.9 mph - N/A   Overcast
11:53 AM 32.0 °F 25.6 °F 15.1 °F 50% 30.01 in 10.0 mi NW 6.9 mph - N/A   Overcast
12:53 PM 35.1 °F 29.3 °F 15.1 °F 44% 29.99 in 10.0 mi Variable 6.9 mph - N/A   Mostly Cloudy
1:53 PM 37.9 °F 32.1 °F 16.0 °F 41% 29.99 in 10.0 mi WNW 8.1 mph - N/A   Mostly Cloudy
2:53 PM 39.9 °F 34.5 °F 16.0 °F 38% 29.97 in 10.0 mi WNW 8.1 mph - N/A   Scattered Clouds
3:53 PM 39.9 °F 34.5 °F 15.1 °F 36% 29.96 in 10.0 mi WNW 8.1 mph - N/A   Mostly Cloudy
4:53 PM 43.0 °F 37.2 °F 16.0 °F 34% 29.96 in 10.0 mi WNW 10.4 mph - N/A   Scattered Clouds
5:53 PM 42.1 °F 37.1 °F 15.1 °F 34% 29.96 in 10.0 mi WNW 8.1 mph - N/A   Scattered Clouds
6:53 PM 42.1 °F 38.4 °F 16.0 °F 35% 29.97 in 10.0 mi West 5.8 mph - N/A   Partly Cloudy
7:53 PM 39.9 °F - 16.0 °F 38% 29.99 in 10.0 mi Calm Calm - N/A   Clear
8:53 PM 37.0 °F - 17.1 °F 44% 30.01 in 10.0 mi Calm Calm - N/A   Clear
9:53 PM 33.1 °F 30.0 °F 17.1 °F 52% 30.03 in 10.0 mi NE 3.5 mph - N/A   Clear
10:53 PM 33.1 °F - 17.1 °F 52% 30.04 in 10.0 mi Calm Calm - N/A   Clear
11:53 PM 30.0 °F - 18.0 °F 61% 30.04 in 10.0 mi Calm Calm - N/A   Clear